Regional Weather Roundup
Issued by NWS

Home | Current Version | Previous Version | Text Only | Print | Product List | Glossary On
Versions: 1 2 3 4 5 6 7 8 9 10 11 12 13 14 15 16 17 18 19 20 21 22 23 24 25 26 27 28 29 30 31 32 33 34 35 36 37 38 39 40 41 42 43 44 45 46 47 48 49 50
000
ASUS43 KTOP 270308
RWRKS

WEATHER ROUNDUP FOR KANSAS
NATIONAL WEATHER SERVICE GOODLAND KS
1000 PM CDT TUE JUL 26 2016

NOTE:  "FAIR" INDICATES FEW OR NO CLOUDS BELOW 12,000 FEET WITH NO
SIGNIFICANT WEATHER AND/OR OBSTRUCTIONS TO VISIBILITY.

KSZ001>006-013>018-027>032-041>047-270400-
NORTHWEST KANSAS

CITY           SKY/WX    TMP DP  RH WIND       PRES   REMARKS
GOODLAND       CLOUDY    69  61  75 S13       30.08R
HAYS           CLEAR     77  63  61 S5        30.01R
HILL CITY      CLOUDY    79  66  64 SE8       30.02R
RUSSELL        CLEAR     78  68  71 E8        30.00R
$$

KSZ061>065-074>080-084>089-270400-
SOUTHWEST KANSAS

CITY           SKY/WX    TMP DP  RH WIND       PRES   REMARKS
DODGE CITY     CLEAR     75  67  76 E6        30.03R
ELKHART          N/A     79  66  64 E8          N/A
GARDEN CITY    CLEAR     77  65  66 SE10      30.03R
GREAT BEND     CLEAR     79  66  65 SE6       30.00R
LIBERAL        CLEAR     81  63  54 SE9       30.05R
PRATT          PTCLDY    77  67  71 E6        30.01R
$$

KSZ066>073-081>083-090>101-270400-
SOUTHEAST KANSAS

CITY           SKY/WX    TMP DP  RH WIND       PRES   REMARKS
CHANUTE        PTCLDY    76  74  93 E5        29.98F
COFFEYVILLE    PTCLDY    75  73  93 E3        29.96S
HUTCHINSON     PTCLDY    79  70  74 E7        30.00R
NEWTON         CLEAR     77  72  84 E6        30.01S
PARSONS        MOCLDY    76  72  87 CALM      29.99S
WICHITA INTL   PTCLDY    82  72  71 E8        29.98S
WICHITA JABRA  CLEAR     77  72  84 E6        29.99R
WICHITA MCCONL CLEAR     81  72  73 E8        29.99R
WINFIELD       PTCLDY    79  73  82 E7        29.98S
$$

KSZ007>012-019>026-033>040-048>060-102>105-270400-
NORTHEAST KANSAS

CITY           SKY/WX    TMP DP  RH WIND       PRES   REMARKS
CONCORDIA      PTCLDY    73  68  84 SE6       30.01R
EMPORIA        CLEAR     75  70  84 E5        29.99S
LAWRENCE       MOCLDY    73  69  87 E3        30.00R
MANHATTAN      CLEAR     75  69  81 CALM      29.99S HAZE
MARYSVILLE     CLEAR     73  68  83 SE6       30.00S
OLATHE IND     CLEAR     76  69  79 E3        30.01S
OLATHE EXE     CLEAR     77  67  71 E3        30.01S
SALINA         PTCLDY    82  70  66 E8        29.99R
TOPEKA BILLARD CLEAR     78  68  71 SE5       30.00R
TOPEKA FORBES  CLEAR     77  71  82 CALM      30.00R
$$




USA.gov is the U.S. government's official web portal to all federal, state and local government web resources and services.